Location: El Castaño
(10.3135°N, 67.5574°W)
Time: 03:49:22
(UTC+00:00)

Cosmos 2251 Rocket - Pass Details

Date: 13 June 2024
Orbit: 762 x 790 km, 74.0° (Epoch: 19 July)

Event Time Altitude Azimuth Distance (km) Brightness Sun altitude
Rises 23:38:22 0° 190° (S) 3,218 6.6 -11.1°
Reaches altitude 10° 23:40:44 10° 189° (S) 2,294 5.8 -11.6°
Maximum altitude 23:45:56 79° 103° (ESE) 783 3.4 -12.8°
Drops below altitude 10° 23:51:10 10° 16° (NNE) 2,310 6.1 -13.9°
Sets 23:53:33 0° 15° (NNE) 3,241 6.9 -14.4°
